Time,TemperatureF,DewpointF,PressureIn,WindDirection,WindDirectionDegrees,WindSpeedMPH,WindSpeedGustMPH,Humidity,HourlyPrecipIn,Conditions,Clouds,dailyrainin,SoftwareType,DateUTC
2013-06-15 00:05:00,75.8,71.0,29.88,SSE,160,0.0,0.0,85,0.00,,,0.00,Wunderground v.1.15,2013-06-15 05:05:00,
2013-06-15 00:10:00,76.0,71.2,29.88,SSE,160,0.0,0.0,85,0.00,,,0.00,Wunderground v.1.15,2013-06-15 05:10:00,
2013-06-15 00:20:00,76.1,70.9,29.88,SSE,160,0.0,0.0,84,0.00,,,0.00,Wunderground v.1.15,2013-06-15 05:20:00,
2013-06-15 00:25:00,76.1,70.9,29.88,SSE,160,0.0,0.0,84,0.00,,,0.00,Wunderground v.1.15,2013-06-15 05:25:00,
2013-06-15 00:35:00,76.7,71.1,29.87,SSE,160,0.0,3.0,83,0.00,,,0.00,Wunderground v.1.15,2013-06-15 05:35:00,
2013-06-15 00:40:00,76.8,71.2,29.87,SSE,160,0.0,2.0,83,0.00,,,0.00,Wunderground v.1.15,2013-06-15 05:40:00,
2013-06-15 00:50:00,77.4,71.8,29.87,SSE,160,1.0,1.0,83,0.00,,,0.00,Wunderground v.1.15,2013-06-15 05:50:00,
2013-06-15 00:55:00,77.6,71.7,29.87,SSE,160,1.0,4.0,82,0.00,,,0.00,Wunderground v.1.15,2013-06-15 05:55:00,
2013-06-15 01:05:00,77.6,71.7,29.88,SSE,160,1.0,1.0,82,0.00,,,0.00,Wunderground v.1.15,2013-06-15 06:05:00,
2013-06-15 01:10:00,77.6,72.0,29.87,SSE,160,1.0,2.0,83,0.00,,,0.00,Wunderground v.1.15,2013-06-15 06:10:00,
2013-06-15 01:20:00,77.6,72.0,29.87,SSE,160,1.0,3.0,83,0.00,,,0.00,Wunderground v.1.15,2013-06-15 06:20:00,
2013-06-15 01:25:00,77.6,72.0,29.87,SSE,160,1.0,3.0,83,0.00,,,0.00,Wunderground v.1.15,2013-06-15 06:25:00,
2013-06-15 01:35:00,77.6,72.0,29.86,SSE,160,1.0,2.0,83,0.00,,,0.00,Wunderground v.1.15,2013-06-15 06:35:00,
2013-06-15 01:40:00,77.6,72.0,29.86,SSE,160,2.0,2.0,83,0.00,,,0.00,Wunderground v.1.15,2013-06-15 06:40:00,
2013-06-15 01:50:00,77.6,72.4,29.87,SSE,160,2.0,2.0,84,0.00,,,0.00,Wunderground v.1.15,2013-06-15 06:50:00,
2013-06-15 01:55:00,77.4,72.2,29.87,SSE,160,1.0,2.0,84,0.00,,,0.00,Wunderground v.1.15,2013-06-15 06:55:00,
2013-06-15 02:05:00,77.4,72.2,29.87,SSE,160,2.0,5.0,84,0.00,,,0.00,Wunderground v.1.15,2013-06-15 07:05:00,
2013-06-15 02:10:00,77.4,72.5,29.86,SSE,160,3.0,3.0,85,0.00,,,0.00,Wunderground v.1.15,2013-06-15 07:10:00,
2013-06-15 02:20:00,77.2,72.3,29.86,SSE,160,2.0,2.0,85,0.00,,,0.00,Wunderground v.1.15,2013-06-15 07:20:00,
2013-06-15 02:25:00,77.2,72.3,29.86,SSE,160,2.0,2.0,85,0.00,,,0.00,Wunderground v.1.15,2013-06-15 07:25:00,
2013-06-15 02:35:00,77.0,72.1,29.86,SSE,160,2.0,2.0,85,0.00,,,0.00,Wunderground v.1.15,2013-06-15 07:35:00,
2013-06-15 02:40:00,77.0,72.5,29.86,SSE,160,1.0,1.0,86,0.00,,,0.00,Wunderground v.1.15,2013-06-15 07:40:00,
2013-06-15 02:50:00,76.8,72.3,29.86,SSE,160,1.0,2.0,86,0.00,,,0.00,Wunderground v.1.15,2013-06-15 07:50:00,
2013-06-15 02:55:00,76.8,72.3,29.86,SSE,160,1.0,2.0,86,0.00,,,0.00,Wunderground v.1.15,2013-06-15 07:55:00,
2013-06-15 03:05:00,76.7,72.2,29.86,SSE,160,1.0,5.0,86,0.00,,,0.00,Wunderground v.1.15,2013-06-15 08:05:00,
2013-06-15 03:10:00,76.7,72.5,29.86,SSE,160,1.0,2.0,87,0.00,,,0.00,Wunderground v.1.15,2013-06-15 08:10:00,
2013-06-15 03:20:00,76.5,72.3,29.85,SSE,160,1.0,1.0,87,0.00,,,0.00,Wunderground v.1.15,2013-06-15 08:20:00,
2013-06-15 03:25:00,76.5,72.3,29.85,SSE,160,0.0,1.0,87,0.00,,,0.00,Wunderground v.1.15,2013-06-15 08:25:00,
2013-06-15 03:35:00,76.3,72.1,29.86,SSE,160,0.0,0.0,87,0.00,,,0.00,Wunderground v.1.15,2013-06-15 08:35:00,
2013-06-15 03:40:00,76.1,72.3,29.87,SSE,160,0.0,2.0,88,0.00,,,0.00,Wunderground v.1.15,2013-06-15 08:40:00,
2013-06-15 03:50:00,76.1,72.3,29.87,SSE,160,0.0,0.0,88,0.00,,,0.00,Wunderground v.1.15,2013-06-15 08:50:00,
2013-06-15 03:55:00,76.0,72.2,29.87,SSE,160,0.0,0.0,88,0.00,,,0.00,Wunderground v.1.15,2013-06-15 08:55:00,
2013-06-15 04:05:00,76.0,72.5,29.87,SSE,160,1.0,1.0,89,0.00,,,0.00,Wunderground v.1.15,2013-06-15 09:05:00,
2013-06-15 04:10:00,76.0,72.5,29.87,SSE,160,1.0,1.0,89,0.00,,,0.00,Wunderground v.1.15,2013-06-15 09:10:00,
2013-06-15 04:20:00,76.0,72.5,29.87,SSE,160,2.0,2.0,89,0.00,,,0.00,Wunderground v.1.15,2013-06-15 09:20:00,
2013-06-15 04:25:00,76.0,72.5,29.87,SSE,160,1.0,2.0,89,0.00,,,0.00,Wunderground v.1.15,2013-06-15 09:25:00,
2013-06-15 04:35:00,75.8,72.3,29.86,SSE,160,2.0,3.0,89,0.00,,,0.00,Wunderground v.1.15,2013-06-15 09:35:00,
2013-06-15 04:40:00,75.8,72.3,29.86,SSE,160,2.0,2.0,89,0.00,,,0.00,Wunderground v.1.15,2013-06-15 09:40:00,
2013-06-15 04:50:00,75.6,72.1,29.86,SSE,160,1.0,1.0,89,0.00,,,0.00,Wunderground v.1.15,2013-06-15 09:50:00,
2013-06-15 04:55:00,75.6,72.1,29.86,SSE,160,1.0,1.0,89,0.00,,,0.00,Wunderground v.1.15,2013-06-15 09:55:00,
2013-06-15 05:05:00,75.4,72.3,29.86,SSE,160,0.0,0.0,90,0.00,,,0.00,Wunderground v.1.15,2013-06-15 10:05:00,
2013-06-15 05:10:00,75.4,72.3,29.86,SSE,160,0.0,0.0,90,0.00,,,0.00,Wunderground v.1.15,2013-06-15 10:10:00,
2013-06-15 05:20:00,75.3,72.2,29.86,SSE,160,0.0,0.0,90,0.00,,,0.00,Wunderground v.1.15,2013-06-15 10:20:00,
2013-06-15 05:25:00,75.3,72.2,29.86,SSE,160,0.0,0.0,90,0.00,,,0.00,Wunderground v.1.15,2013-06-15 10:25:00,
2013-06-15 05:35:00,75.3,72.5,29.86,SSE,160,2.0,2.0,91,0.00,,,0.00,Wunderground v.1.15,2013-06-15 10:35:00,
2013-06-15 05:40:00,75.1,72.3,29.87,SSE,160,1.0,1.0,91,0.00,,,0.00,Wunderground v.1.15,2013-06-15 10:40:00,
2013-06-15 05:50:00,75.1,72.3,29.87,SSE,160,2.0,2.0,91,0.00,,,0.00,Wunderground v.1.15,2013-06-15 10:50:00,
2013-06-15 05:55:00,75.1,72.3,29.87,SSE,160,2.0,2.0,91,0.00,,,0.00,Wunderground v.1.15,2013-06-15 10:55:00,
2013-06-15 06:05:00,75.1,72.3,29.88,SSE,160,1.0,4.0,91,0.00,,,0.00,Wunderground v.1.15,2013-06-15 11:05:00,
2013-06-15 06:10:00,75.1,72.3,29.88,SSE,160,1.0,1.0,91,0.00,,,0.00,Wunderground v.1.15,2013-06-15 11:10:00,
2013-06-15 06:20:00,74.9,72.1,29.89,SSE,160,0.0,4.0,91,0.00,,,0.00,Wunderground v.1.15,2013-06-15 11:20:00,
2013-06-15 06:25:00,74.9,72.1,29.89,SSE,160,1.0,4.0,91,0.00,,,0.00,Wunderground v.1.15,2013-06-15 11:25:00,
2013-06-15 06:35:00,74.9,72.1,29.89,SSE,160,1.0,1.0,91,0.00,,,0.00,Wunderground v.1.15,2013-06-15 11:35:00,
2013-06-15 06:40:00,74.9,72.1,29.89,SSE,160,1.0,1.0,91,0.00,,,0.00,Wunderground v.1.15,2013-06-15 11:40:00,
2013-06-15 06:50:00,74.9,72.1,29.90,SSE,160,0.0,0.0,91,0.00,,,0.00,Wunderground v.1.15,2013-06-15 11:50:00,
2013-06-15 06:55:00,74.9,72.4,29.90,SSE,160,0.0,0.0,92,0.00,,,0.00,Wunderground v.1.15,2013-06-15 11:55:00,
2013-06-15 07:05:00,74.9,72.4,29.90,SSE,160,0.0,0.0,92,0.00,,,0.00,Wunderground v.1.15,2013-06-15 12:05:00,
2013-06-15 07:10:00,74.9,72.4,29.90,SSE,160,0.0,0.0,92,0.00,,,0.00,Wunderground v.1.15,2013-06-15 12:10:00,
2013-06-15 07:20:00,74.9,72.4,29.90,SSE,160,0.0,0.0,92,0.00,,,0.00,Wunderground v.1.15,2013-06-15 12:20:00,
2013-06-15 07:25:00,75.1,72.6,29.91,SSE,160,0.0,0.0,92,0.00,,,0.00,Wunderground v.1.15,2013-06-15 12:25:00,
2013-06-15 07:35:00,75.1,72.6,29.91,SSE,160,0.0,1.0,92,0.00,,,0.00,Wunderground v.1.15,2013-06-15 12:35:00,
2013-06-15 07:40:00,75.1,72.6,29.91,SSE,160,0.0,0.0,92,0.00,,,0.00,Wunderground v.1.15,2013-06-15 12:40:00,
2013-06-15 07:50:00,75.3,72.8,29.91,SSE,160,1.0,1.0,92,0.00,,,0.00,Wunderground v.1.15,2013-06-15 12:50:00,
2013-06-15 07:55:00,75.3,72.8,29.91,SSE,160,2.0,2.0,92,0.00,,,0.00,Wunderground v.1.15,2013-06-15 12:55:00,
2013-06-15 08:05:00,75.6,73.1,29.92,SSE,160,1.0,1.0,92,0.00,,,0.00,Wunderground v.1.15,2013-06-15 13:05:00,
2013-06-15 08:10:00,76.0,73.5,29.92,SSE,160,1.0,1.0,92,0.00,,,0.00,Wunderground v.1.15,2013-06-15 13:10:00,
2013-06-15 08:20:00,76.5,74.0,29.92,SSE,160,1.0,1.0,92,0.00,,,0.00,Wunderground v.1.15,2013-06-15 13:20:00,
2013-06-15 08:25:00,77.0,73.5,29.92,SSE,160,1.0,2.0,89,0.00,,,0.00,Wunderground v.1.15,2013-06-15 13:25:00,
2013-06-15 08:35:00,77.7,73.9,29.92,SSE,160,3.0,5.0,88,0.00,,,0.00,Wunderground v.1.15,2013-06-15 13:35:00,
2013-06-15 08:40:00,78.1,73.2,29.92,SSE,160,3.0,3.0,85,0.00,,,0.00,Wunderground v.1.15,2013-06-15 13:40:00,
2013-06-15 08:50:00,78.8,72.8,29.92,SSE,160,2.0,2.0,82,0.00,,,0.00,Wunderground v.1.15,2013-06-15 13:50:00,
2013-06-15 08:55:00,79.4,72.7,29.92,SSE,160,2.0,2.0,80,0.00,,,0.00,Wunderground v.1.15,2013-06-15 13:55:00,
2013-06-15 09:05:00,79.9,72.8,29.92,SSE,160,2.0,10.0,79,0.00,,,0.00,Wunderground v.1.15,2013-06-15 14:05:00,
2013-06-15 09:10:00,80.3,72.4,29.92,SSE,160,2.0,2.0,77,0.00,,,0.00,Wunderground v.1.15,2013-06-15 14:10:00,
2013-06-15 09:20:00,81.8,72.3,29.92,SSE,160,3.0,4.0,73,0.00,,,0.00,Wunderground v.1.15,2013-06-15 14:20:00,
2013-06-15 09:25:00,82.6,72.2,29.92,SSE,160,3.0,4.0,71,0.00,,,0.00,Wunderground v.1.15,2013-06-15 14:25:00,
2013-06-15 09:35:00,83.6,71.5,29.92,SSE,160,2.0,6.0,67,0.00,,,0.00,Wunderground v.1.15,2013-06-15 14:35:00,
2013-06-15 09:40:00,83.4,71.7,29.93,SSE,164,4.0,4.0,68,0.00,,,0.00,Wunderground v.1.15,2013-06-15 14:40:00,
2013-06-15 09:50:00,83.6,71.9,29.93,SSE,164,4.0,7.0,68,0.00,,,0.00,Wunderground v.1.15,2013-06-15 14:50:00,
2013-06-15 09:55:00,84.0,71.0,29.93,SSE,164,3.0,7.0,65,0.00,,,0.00,Wunderground v.1.15,2013-06-15 14:55:00,
2013-06-15 10:05:00,83.8,71.2,29.93,SSE,165,2.0,3.0,66,0.00,,,0.00,Wunderground v.1.15,2013-06-15 15:05:00,
2013-06-15 10:10:00,83.6,71.5,29.93,SSE,165,2.0,2.0,67,0.00,,,0.00,Wunderground v.1.15,2013-06-15 15:10:00,
2013-06-15 10:20:00,83.2,71.1,29.93,SSE,165,3.0,3.0,67,0.00,,,0.00,Wunderground v.1.15,2013-06-15 15:20:00,
2013-06-15 10:25:00,83.4,70.8,29.93,SSE,165,2.0,3.0,66,0.00,,,0.00,Wunderground v.1.15,2013-06-15 15:25:00,
2013-06-15 10:35:00,83.8,71.2,29.93,SSE,165,2.0,2.0,66,0.00,,,0.00,Wunderground v.1.15,2013-06-15 15:35:00,
2013-06-15 10:40:00,84.1,71.1,29.93,SSE,165,2.0,2.0,65,0.00,,,0.00,Wunderground v.1.15,2013-06-15 15:40:00,
2013-06-15 10:50:00,84.1,71.1,29.93,SSE,165,2.0,2.0,65,0.00,,,0.00,Wunderground v.1.15,2013-06-15 15:50:00,
2013-06-15 10:55:00,84.0,71.0,29.93,SSE,165,2.0,4.0,65,0.00,,,0.00,Wunderground v.1.15,2013-06-15 15:55:00,
2013-06-15 11:05:00,83.8,71.2,29.93,SSE,165,1.0,4.0,66,0.00,,,0.00,Wunderground v.1.15,2013-06-15 16:05:00,
2013-06-15 11:10:00,83.8,71.2,29.93,SSE,165,2.0,2.0,66,0.00,,,0.00,Wunderground v.1.15,2013-06-15 16:10:00,
2013-06-15 11:20:00,84.0,71.0,29.93,SSE,165,2.0,2.0,65,0.00,,,0.00,Wunderground v.1.15,2013-06-15 16:20:00,
2013-06-15 11:25:00,83.8,71.2,29.93,SSE,165,3.0,7.0,66,0.00,,,0.00,Wunderground v.1.15,2013-06-15 16:25:00,
2013-06-15 11:35:00,83.4,70.4,29.93,SSE,165,3.0,3.0,65,0.00,,,0.00,Wunderground v.1.15,2013-06-15 16:35:00,
2013-06-15 11:40:00,83.4,70.8,29.93,SSE,165,2.0,2.0,66,0.00,,,0.00,Wunderground v.1.15,2013-06-15 16:40:00,
2013-06-15 11:50:00,83.6,71.0,29.93,SSE,165,1.0,1.0,66,0.00,,,0.00,Wunderground v.1.15,2013-06-15 16:50:00,
2013-06-15 11:55:00,83.8,70.8,29.93,SSE,165,1.0,2.0,65,0.00,,,0.00,Wunderground v.1.15,2013-06-15 16:55:00,
2013-06-15 12:05:00,83.4,70.8,29.93,SSE,165,1.0,3.0,66,0.00,,,0.00,Wunderground v.1.15,2013-06-15 17:05:00,
2013-06-15 12:10:00,82.8,71.2,29.93,SSE,165,1.0,1.0,68,0.00,,,0.00,Wunderground v.1.15,2013-06-15 17:10:00,
2013-06-15 12:20:00,82.6,71.0,29.92,SSE,165,1.0,1.0,68,0.00,,,0.00,Wunderground v.1.15,2013-06-15 17:20:00,
2013-06-15 12:25:00,82.6,69.2,29.92,SSE,165,2.0,2.0,64,0.00,,,0.00,Wunderground v.1.15,2013-06-15 17:25:00,
2013-06-15 12:35:00,82.4,70.3,29.92,SSE,165,2.0,2.0,67,0.00,,,0.00,Wunderground v.1.15,2013-06-15 17:35:00,
2013-06-15 12:40:00,82.4,69.9,29.92,SSE,165,1.0,1.0,66,0.00,,,0.00,Wunderground v.1.15,2013-06-15 17:40:00,
2013-06-15 12:50:00,82.4,70.3,29.92,SSE,165,1.0,1.0,67,0.00,,,0.00,Wunderground v.1.15,2013-06-15 17:50:00,
2013-06-15 12:55:00,82.4,70.3,29.92,SSE,165,0.0,1.0,67,0.00,,,0.00,Wunderground v.1.15,2013-06-15 17:55:00,
2013-06-15 13:05:00,82.4,69.9,29.92,SSE,165,1.0,1.0,66,0.00,,,0.00,Wunderground v.1.15,2013-06-15 18:05:00,
2013-06-15 13:10:00,82.6,70.1,29.92,SSE,165,1.0,1.0,66,0.00,,,0.00,Wunderground v.1.15,2013-06-15 18:10:00,
2013-06-15 13:20:00,82.8,69.8,29.92,SSE,165,2.0,2.0,65,0.00,,,0.00,Wunderground v.1.15,2013-06-15 18:20:00,
2013-06-15 13:25:00,82.8,70.3,29.92,SSE,165,2.0,2.0,66,0.00,,,0.00,Wunderground v.1.15,2013-06-15 18:25:00,
2013-06-15 13:35:00,83.0,71.3,29.92,SSE,165,1.0,3.0,68,0.00,,,0.00,Wunderground v.1.15,2013-06-15 18:35:00,
2013-06-15 13:40:00,82.8,70.7,29.91,SSE,165,1.0,2.0,67,0.00,,,0.00,Wunderground v.1.15,2013-06-15 18:40:00,
2013-06-15 13:50:00,82.6,71.0,29.91,SSE,165,2.0,2.0,68,0.00,,,0.00,Wunderground v.1.15,2013-06-15 18:50:00,
2013-06-15 13:55:00,82.6,71.0,29.91,SSE,165,1.0,2.0,68,0.00,,,0.00,Wunderground v.1.15,2013-06-15 18:55:00,
2013-06-15 14:05:00,82.4,70.8,29.91,SSE,165,0.0,1.0,68,0.00,,,0.00,Wunderground v.1.15,2013-06-15 19:05:00,
2013-06-15 14:10:00,82.4,70.8,29.91,SSE,165,1.0,2.0,68,0.00,,,0.00,Wunderground v.1.15,2013-06-15 19:10:00,
2013-06-15 14:20:00,82.0,70.8,29.91,SSE,165,1.0,5.0,69,0.00,,,0.00,Wunderground v.1.15,2013-06-15 19:20:00,
2013-06-15 14:25:00,82.0,70.8,29.91,SSE,165,1.0,5.0,69,0.00,,,0.00,Wunderground v.1.15,2013-06-15 19:25:00,
2013-06-15 14:35:00,81.8,71.5,29.90,SSE,165,1.0,2.0,71,0.00,,,0.00,Wunderground v.1.15,2013-06-15 19:35:00,
2013-06-15 14:40:00,81.8,71.5,29.90,SSE,165,1.0,1.0,71,0.00,,,0.00,Wunderground v.1.15,2013-06-15 19:40:00,
2013-06-15 14:50:00,81.8,71.5,29.90,SSE,165,0.0,0.0,71,0.00,,,0.00,Wunderground v.1.15,2013-06-15 19:50:00,
2013-06-15 14:55:00,81.6,71.3,29.90,SSE,165,0.0,0.0,71,0.00,,,0.00,Wunderground v.1.15,2013-06-15 19:55:00,
2013-06-15 15:05:00,81.8,71.1,29.90,SSE,165,0.0,0.0,70,0.00,,,0.00,Wunderground v.1.15,2013-06-15 20:05:00,
2013-06-15 15:10:00,81.6,70.9,29.90,SSE,165,0.0,0.0,70,0.00,,,0.00,Wunderground v.1.15,2013-06-15 20:10:00,
2013-06-15 15:20:00,81.8,71.9,29.90,SSE,165,0.0,0.0,72,0.00,,,0.00,Wunderground v.1.15,2013-06-15 20:20:00,
2013-06-15 15:25:00,81.8,71.9,29.90,SSE,165,0.0,0.0,72,0.00,,,0.00,Wunderground v.1.15,2013-06-15 20:25:00,
2013-06-15 15:35:00,81.8,71.1,29.90,SSE,165,1.0,1.0,70,0.00,,,0.00,Wunderground v.1.15,2013-06-15 20:35:00,
2013-06-15 15:40:00,82.0,72.1,29.90,SSE,165,0.0,0.0,72,0.00,,,0.00,Wunderground v.1.15,2013-06-15 20:40:00,
2013-06-15 15:50:00,82.4,71.6,29.89,SSE,165,1.0,1.0,70,0.00,,,0.00,Wunderground v.1.15,2013-06-15 20:50:00,
2013-06-15 15:55:00,82.8,71.2,29.89,SSE,165,1.0,3.0,68,0.00,,,0.00,Wunderground v.1.15,2013-06-15 20:55:00,
2013-06-15 16:05:00,83.4,70.4,29.89,SSE,165,0.0,0.0,65,0.00,,,0.00,Wunderground v.1.15,2013-06-15 21:05:00,
2013-06-15 16:10:00,83.6,70.6,29.89,SSE,165,0.0,0.0,65,0.00,,,0.00,Wunderground v.1.15,2013-06-15 21:10:00,
2013-06-15 16:20:00,83.8,70.8,29.89,SSE,165,1.0,1.0,65,0.00,,,0.00,Wunderground v.1.15,2013-06-15 21:20:00,
2013-06-15 16:25:00,83.8,70.3,29.89,SSE,165,0.0,1.0,64,0.00,,,0.00,Wunderground v.1.15,2013-06-15 21:25:00,
2013-06-15 16:35:00,83.8,70.3,29.88,SSE,165,0.0,0.0,64,0.00,,,0.00,Wunderground v.1.15,2013-06-15 21:35:00,
2013-06-15 16:40:00,83.8,70.8,29.88,SSE,165,0.0,0.0,65,0.00,,,0.00,Wunderground v.1.15,2013-06-15 21:40:00,
2013-06-15 16:50:00,83.6,70.6,29.88,SSE,165,0.0,0.0,65,0.00,,,0.00,Wunderground v.1.15,2013-06-15 21:50:00,
2013-06-15 16:55:00,83.6,70.1,29.88,SSE,165,0.0,0.0,64,0.00,,,0.00,Wunderground v.1.15,2013-06-15 21:55:00,
2013-06-15 17:05:00,83.4,71.3,29.87,SSE,165,0.0,0.0,67,0.00,,,0.00,Wunderground v.1.15,2013-06-15 22:05:00,
2013-06-15 17:10:00,83.4,71.3,29.87,SSE,165,0.0,0.0,67,0.00,,,0.00,Wunderground v.1.15,2013-06-15 22:10:00,
2013-06-15 17:20:00,83.6,71.0,29.87,SSE,165,0.0,0.0,66,0.00,,,0.00,Wunderground v.1.15,2013-06-15 22:20:00,
2013-06-15 17:25:00,83.6,70.6,29.87,SSE,165,0.0,0.0,65,0.00,,,0.00,Wunderground v.1.15,2013-06-15 22:25:00,
2013-06-15 17:35:00,83.6,70.1,29.86,SSE,165,1.0,1.0,64,0.00,,,0.00,Wunderground v.1.15,2013-06-15 22:35:00,
2013-06-15 17:40:00,83.8,70.8,29.86,SSE,165,0.0,0.0,65,0.00,,,0.00,Wunderground v.1.15,2013-06-15 22:40:00,
2013-06-15 17:50:00,84.0,71.0,29.86,SSE,165,1.0,1.0,65,0.00,,,0.00,Wunderground v.1.15,2013-06-15 22:50:00,
2013-06-15 17:55:00,84.3,70.3,29.86,SSE,165,1.0,1.0,63,0.00,,,0.00,Wunderground v.1.15,2013-06-15 22:55:00,
2013-06-15 18:05:00,84.7,71.2,29.85,SSE,165,0.0,1.0,64,0.00,,,0.00,Wunderground v.1.15,2013-06-15 23:05:00,
2013-06-15 18:10:00,84.9,70.9,29.85,SSE,165,0.0,0.0,63,0.00,,,0.00,Wunderground v.1.15,2013-06-15 23:10:00,
2013-06-15 18:20:00,85.1,70.6,29.84,SSE,165,1.0,1.0,62,0.00,,,0.00,Wunderground v.1.15,2013-06-15 23:20:00,
2013-06-15 18:25:00,85.1,70.1,29.84,SSE,165,1.0,1.0,61,0.00,,,0.00,Wunderground v.1.15,2013-06-15 23:25:00,
2013-06-15 18:35:00,85.3,70.8,29.83,SSE,165,0.0,0.0,62,0.00,,,0.00,Wunderground v.1.15,2013-06-15 23:35:00,
2013-06-15 18:40:00,85.3,70.8,29.83,SSE,165,0.0,0.0,62,0.00,,,0.00,Wunderground v.1.15,2013-06-15 23:40:00,
2013-06-15 18:50:00,85.1,71.1,29.83,SSE,165,0.0,0.0,63,0.00,,,0.00,Wunderground v.1.15,2013-06-15 23:50:00,
2013-06-15 18:55:00,84.7,70.7,29.83,SSE,165,0.0,1.0,63,0.00,,,0.00,Wunderground v.1.15,2013-06-15 23:55:00,
2013-06-15 19:05:00,84.3,70.8,29.83,SSE,165,0.0,0.0,64,0.00,,,0.00,Wunderground v.1.15,2013-06-16 00:05:00,
2013-06-15 19:10:00,84.3,70.8,29.83,SSE,165,0.0,0.0,64,0.00,,,0.00,Wunderground v.1.15,2013-06-16 00:10:00,
2013-06-15 19:20:00,84.0,71.0,29.83,SSE,165,0.0,0.0,65,0.00,,,0.00,Wunderground v.1.15,2013-06-16 00:20:00,
2013-06-15 19:25:00,83.8,69.9,29.84,SSE,165,0.0,2.0,63,0.00,,,0.00,Wunderground v.1.15,2013-06-16 00:25:00,
2013-06-15 19:35:00,83.6,69.2,29.84,SSE,165,1.0,2.0,62,0.00,,,0.00,Wunderground v.1.15,2013-06-16 00:35:00,
2013-06-15 19:40:00,83.6,69.7,29.84,SSE,165,0.0,0.0,63,0.00,,,0.00,Wunderground v.1.15,2013-06-16 00:40:00,
2013-06-15 19:50:00,83.4,71.3,29.84,SSE,165,0.0,0.0,67,0.00,,,0.00,Wunderground v.1.15,2013-06-16 00:50:00,
2013-06-15 19:55:00,83.0,72.2,29.84,SSE,165,0.0,0.0,70,0.00,,,0.00,Wunderground v.1.15,2013-06-16 00:55:00,
2013-06-15 20:05:00,82.2,71.9,29.83,SSE,165,0.0,0.0,71,0.00,,,0.00,Wunderground v.1.15,2013-06-16 01:05:00,
2013-06-15 20:10:00,81.6,71.7,29.83,SSE,165,0.0,0.0,72,0.00,,,0.00,Wunderground v.1.15,2013-06-16 01:10:00,
2013-06-15 20:20:00,80.9,71.4,29.84,SSE,165,0.0,0.0,73,0.00,,,0.00,Wunderground v.1.15,2013-06-16 01:20:00,
2013-06-15 20:25:00,80.3,71.3,29.84,SSE,165,0.0,0.0,74,0.00,,,0.00,Wunderground v.1.15,2013-06-16 01:25:00,
2013-06-15 20:35:00,79.6,71.4,29.84,SSE,165,0.0,0.0,76,0.00,,,0.00,Wunderground v.1.15,2013-06-16 01:35:00,
2013-06-15 20:40:00,79.0,71.2,29.84,SSE,165,0.0,0.0,77,0.00,,,0.00,Wunderground v.1.15,2013-06-16 01:40:00,
2013-06-15 20:50:00,78.3,70.9,29.84,SSE,165,0.0,0.0,78,0.00,,,0.00,Wunderground v.1.15,2013-06-16 01:50:00,
2013-06-15 20:55:00,77.7,70.7,29.85,SSE,165,0.0,0.0,79,0.00,,,0.00,Wunderground v.1.15,2013-06-16 01:55:00,
2013-06-15 21:05:00,77.0,70.4,29.84,SSE,165,0.0,0.0,80,0.00,,,0.00,Wunderground v.1.15,2013-06-16 02:05:00,
2013-06-15 21:10:00,76.8,70.2,29.85,SSE,165,0.0,0.0,80,0.00,,,0.00,Wunderground v.1.15,2013-06-16 02:10:00,
2013-06-15 21:20:00,76.3,70.0,29.85,SSE,165,0.0,0.0,81,0.00,,,0.00,Wunderground v.1.15,2013-06-16 02:20:00,
2013-06-15 21:25:00,76.0,70.1,29.85,SSE,165,0.0,0.0,82,0.00,,,0.00,Wunderground v.1.15,2013-06-16 02:25:00,
2013-06-15 21:35:00,75.8,69.9,29.85,SSE,165,0.0,0.0,82,0.00,,,0.00,Wunderground v.1.15,2013-06-16 02:35:00,
2013-06-15 21:40:00,75.6,70.1,29.85,SSE,165,0.0,0.0,83,0.00,,,0.00,Wunderground v.1.15,2013-06-16 02:40:00,
2013-06-15 21:50:00,75.3,69.8,29.86,SSE,165,0.0,0.0,83,0.00,,,0.00,Wunderground v.1.15,2013-06-16 02:50:00,
2013-06-15 21:55:00,75.1,69.6,29.86,SSE,165,0.0,0.0,83,0.00,,,0.00,Wunderground v.1.15,2013-06-16 02:55:00,
2013-06-15 22:05:00,74.7,69.5,29.86,SSE,165,0.0,0.0,84,0.00,,,0.00,Wunderground v.1.15,2013-06-16 03:05:00,
2013-06-15 22:10:00,74.6,69.8,29.86,SSE,165,0.0,0.0,85,0.00,,,0.00,Wunderground v.1.15,2013-06-16 03:10:00,
2013-06-15 22:20:00,74.4,69.6,29.87,SSE,165,0.0,0.0,85,0.00,,,0.00,Wunderground v.1.15,2013-06-16 03:20:00,
2013-06-15 22:25:00,74.2,69.7,29.87,SSE,165,0.0,0.0,86,0.00,,,0.00,Wunderground v.1.15,2013-06-16 03:25:00,
2013-06-15 22:35:00,73.9,69.4,29.88,SSE,165,0.0,0.0,86,0.00,,,0.00,Wunderground v.1.15,2013-06-16 03:35:00,
2013-06-15 22:40:00,73.9,69.4,29.88,SSE,165,0.0,0.0,86,0.00,,,0.00,Wunderground v.1.15,2013-06-16 03:40:00,
2013-06-15 22:50:00,73.7,69.2,29.88,SSE,165,0.0,0.0,86,0.00,,,0.00,Wunderground v.1.15,2013-06-16 03:50:00,
2013-06-15 22:55:00,73.5,69.4,29.88,SSE,165,0.0,0.0,87,0.00,,,0.00,Wunderground v.1.15,2013-06-16 03:55:00,
2013-06-15 23:05:00,73.3,69.2,29.89,SSE,165,0.0,0.0,87,0.00,,,0.00,Wunderground v.1.15,2013-06-16 04:05:00,
2013-06-15 23:10:00,73.3,69.5,29.89,SSE,165,0.0,0.0,88,0.00,,,0.00,Wunderground v.1.15,2013-06-16 04:10:00,
2013-06-15 23:20:00,73.2,69.4,29.89,SSE,165,0.0,0.0,88,0.00,,,0.00,Wunderground v.1.15,2013-06-16 04:20:00,
2013-06-15 23:25:00,73.2,69.4,29.89,SSE,165,0.0,0.0,88,0.00,,,0.00,Wunderground v.1.15,2013-06-16 04:25:00,
2013-06-15 23:35:00,73.0,69.2,29.89,SSE,165,0.0,0.0,88,0.00,,,0.00,Wunderground v.1.15,2013-06-16 04:35:00,
2013-06-15 23:40:00,73.0,69.6,29.89,SSE,165,0.0,0.0,89,0.00,,,0.00,Wunderground v.1.15,2013-06-16 04:40:00,
2013-06-15 23:45:00,73.0,69.6,29.89,SSE,165,0.0,0.0,89,0.00,,,0.00,Wunderground v.1.15,2013-06-16 04:45:00,
2013-06-15 23:50:00,73.0,69.6,29.89,SSE,165,0.0,0.0,89,0.00,,,0.00,Wunderground v.1.15,2013-06-16 04:50:00,
2013-06-15 23:55:00,73.2,70.1,29.89,SSE,165,0.0,0.0,90,0.00,,,0.00,Wunderground v.1.15,2013-06-16 04:55:00,